Newport Airport, OR

10:11 PM PDT on June 28, 2017 (GMT -0700)
Newport Municipal

Weather History for KONP - March, 2014

Change the Weather History Date:

Monday, March 17, 2014

  Actual Average Record
Temperature  
Mean Temperature 46 °F -  
Max Temperature 50 °F 51 °F 62 °F (2016)
Min Temperature 41 °F 41 °F 35 °F (2002)
Degree Days  
Heating Degree Days 20    
Moisture  
Dew Point 36 °F    
Average Humidity 70    
Maximum Humidity 93    
Minimum Humidity 54    
Precipitation  
Precipitation 0.01 in - - ()
Sea Level Pressure  
Sea Level Pressure 30.40 in    
Wind  
Wind Speed 12 mph (NNW)    
Max Wind Speed 23 mph    
Max Gust Speed 31 mph    
Visibility 9 miles    
Events Rain    
Averages and records for this station are not official NWS values.
T = Trace of Precipitation, MM = Missing Value Source: NWS Daily Summary

Daily Weather History Graph

Daily Weather History Graph

Search for Another Location

Airport or City:

Trip Planner

Search our weather history database for the weather conditions in past years. The results will help you decide how hot, cold, wet, or windy it might be!

Date:

Astronomy

Mar. 17, 2014 Rise Set
Actual Time 7:24 AM PDT 7:25 PM PDT
Civil Twilight 6:55 AM PDT 7:54 PM PDT
Nautical Twilight 6:21 AM PDT 8:28 PM PDT
Astronomical Twilight 5:47 AM PDT 9:02 PM PDT
Moon 8:52 PM PDT (3/17) 7:40 AM PDT (3/17)
Length of Visible Light 12h 58m
Length of Day
12h 00m
Full, 99% of the Moon is Illuminated
Mar 17
Full
Mar 23
Last Quarter
Mar 30
New
Apr 7
First Quarter
Apr 15
Full

Hourly Weather History & Observations

Time (PDT) Temp. Windchill Dew Point Humidity Pressure Visibility Wind Dir Wind Speed Gust Speed Precip Events Conditions
12:15 AM 42.8 °F 41.1 °F 39.2 °F 87% 30.22 in 10.0 mi NNE 3.5 mph - N/A   Overcast
12:35 AM 42.8 °F 36.6 °F 41.0 °F 93% 30.23 in 7.0 mi NNW 11.5 mph - N/A   Overcast
12:55 AM 44.6 °F 39.7 °F 41.0 °F 87% 30.23 in 7.0 mi NW 9.2 mph - N/A   Mostly Cloudy
1:15 AM 44.6 °F 39.7 °F 41.0 °F 87% 30.24 in 7.0 mi WNW 9.2 mph 23.0 mph N/A   Light Drizzle
1:35 AM 44.6 °F 38.1 °F 41.0 °F 87% - 5.0 mi NNW 13.8 mph 18.4 mph 0.01 in Rain Light Rain
1:55 AM 44.6 °F 36.6 °F 41.0 °F 87% 30.25 in 7.0 mi NW 19.6 mph 27.6 mph 0.01 in   Mostly Cloudy
2:15 AM 44.6 °F 38.1 °F 41.0 °F 87% 30.26 in 7.0 mi NNW 13.8 mph 26.5 mph N/A   Mostly Cloudy
2:35 AM 44.6 °F 35.9 °F 41.0 °F 87% 30.27 in 7.0 mi NW 23.0 mph 31.1 mph N/A   Mostly Cloudy
2:55 AM 44.6 °F 37.4 °F 41.0 °F 87% 30.28 in 7.0 mi NW 16.1 mph 26.5 mph N/A   Mostly Cloudy
3:15 AM 44.6 °F 36.1 °F 39.2 °F 81% - 7.0 mi NW 21.9 mph 27.6 mph N/A   Light Drizzle
3:35 AM 44.6 °F 36.9 °F 39.2 °F 81% - 10.0 mi NW 18.4 mph 29.9 mph N/A   Mostly Cloudy
3:55 AM 44.6 °F 37.4 °F 37.4 °F 76% 30.30 in 10.0 mi NW 16.1 mph 28.8 mph N/A   Scattered Clouds
4:15 AM 44.6 °F 36.6 °F 37.4 °F 76% 30.31 in 10.0 mi NW 19.6 mph 29.9 mph N/A   Mostly Cloudy
4:35 AM 44.6 °F 36.4 °F 37.4 °F 76% 30.32 in 7.0 mi NNW 20.7 mph 28.8 mph N/A   Overcast
4:55 AM 44.6 °F 36.4 °F 37.4 °F 76% 30.32 in 10.0 mi NNW 20.7 mph 28.8 mph N/A   Overcast
5:15 AM 44.6 °F 37.4 °F 35.6 °F 71% 30.33 in 10.0 mi NNW 16.1 mph 26.5 mph N/A   Scattered Clouds
5:35 AM 44.6 °F 37.2 °F 37.4 °F 76% - 10.0 mi NNW 17.3 mph 23.0 mph N/A   Scattered Clouds
5:55 AM 44.6 °F 37.2 °F 35.6 °F 71% 30.35 in 7.0 mi NNW 17.3 mph 24.2 mph N/A   Mostly Cloudy
6:15 AM 44.6 °F 36.6 °F 35.6 °F 71% 30.35 in 10.0 mi NNW 19.6 mph 24.2 mph N/A   Mostly Cloudy
6:35 AM 44.6 °F 36.4 °F 35.6 °F 71% 30.36 in 7.0 mi NNW 20.7 mph 24.2 mph N/A   Mostly Cloudy
6:55 AM 42.8 °F 34.8 °F 35.6 °F 76% 30.37 in 10.0 mi NNW 17.3 mph 24.2 mph N/A   Mostly Cloudy
7:15 AM 44.6 °F 37.2 °F 33.8 °F 66% 30.38 in 10.0 mi NNW 17.3 mph 24.2 mph N/A   Mostly Cloudy
7:35 AM 42.8 °F 35.1 °F 32.0 °F 66% 30.39 in 10.0 mi NNW 16.1 mph 23.0 mph N/A   Scattered Clouds
7:55 AM 42.8 °F 35.4 °F 32.0 °F 66% 30.40 in 10.0 mi NNW 15.0 mph - N/A   Scattered Clouds
8:15 AM 44.6 °F 38.1 °F 32.0 °F 61% - 10.0 mi NNW 13.8 mph 21.9 mph N/A   Mostly Cloudy
8:35 AM 44.6 °F 38.8 °F 32.0 °F 61% 30.40 in 10.0 mi NNW 11.5 mph 20.7 mph N/A   Scattered Clouds
8:55 AM 44.6 °F 39.7 °F 32.0 °F 61% 30.41 in 10.0 mi NNW 9.2 mph - N/A   Scattered Clouds
9:15 AM 44.6 °F 38.8 °F 33.8 °F 66% 30.42 in 10.0 mi NNW 11.5 mph 18.4 mph N/A   Mostly Cloudy
9:35 AM 44.6 °F 38.1 °F 33.8 °F 66% 30.42 in 7.0 mi NW 13.8 mph 19.6 mph N/A   Mostly Cloudy
9:55 AM 46.4 °F 40.4 °F 33.8 °F 62% 30.43 in 10.0 mi NNW 13.8 mph 17.3 mph N/A   Scattered Clouds
10:15 AM 46.4 °F 41.5 °F 33.8 °F 62% 30.44 in 10.0 mi NW 10.4 mph 18.4 mph N/A   Scattered Clouds
10:35 AM 46.4 °F 41.5 °F 33.8 °F 62% 30.44 in 10.0 mi NW 10.4 mph - N/A   Scattered Clouds
10:55 AM 46.4 °F 41.9 °F 35.6 °F 66% 30.45 in 10.0 mi NNW 9.2 mph - N/A   Scattered Clouds
11:15 AM 46.4 °F 40.7 °F 35.6 °F 66% 30.45 in 7.0 mi NNW 12.7 mph 16.1 mph N/A   Scattered Clouds
11:35 AM 46.4 °F 41.5 °F 33.8 °F 62% 30.46 in 10.0 mi NW 10.4 mph - N/A   Scattered Clouds
11:55 AM 48.2 °F - 33.8 °F 58% 30.46 in 10.0 mi NNW 10.4 mph 17.3 mph N/A   Scattered Clouds
12:15 PM 50.0 °F - 35.6 °F 58% 30.46 in 10.0 mi NNW 10.4 mph 17.3 mph N/A   Scattered Clouds
12:35 PM 50.0 °F - 33.8 °F 54% 30.46 in 10.0 mi NW 11.5 mph 18.4 mph N/A   Clear
12:55 PM 50.0 °F - 33.8 °F 54% 30.46 in 10.0 mi NW 11.5 mph 17.3 mph N/A   Clear
1:15 PM 50.0 °F - 35.6 °F 58% 30.46 in 10.0 mi NNW 12.7 mph 16.1 mph N/A   Scattered Clouds
1:35 PM 50.0 °F - 37.4 °F 62% 30.46 in 10.0 mi NW 11.5 mph - N/A   Scattered Clouds
1:55 PM 50.0 °F - 35.6 °F 58% 30.45 in 10.0 mi NW 11.5 mph 18.4 mph N/A   Mostly Cloudy
2:15 PM 50.0 °F - 33.8 °F 54% 30.45 in 10.0 mi NNW 12.7 mph 17.3 mph N/A   Scattered Clouds
2:35 PM 50.0 °F - 35.6 °F 58% 30.45 in 10.0 mi NW 10.4 mph - N/A   Clear
2:55 PM 50.0 °F - 33.8 °F 54% 30.45 in 10.0 mi NW 9.2 mph - N/A   Scattered Clouds
3:15 PM 50.0 °F - 35.6 °F 58% 30.44 in 10.0 mi NW 11.5 mph - N/A   Scattered Clouds
3:35 PM 50.0 °F - 35.6 °F 58% 30.44 in 10.0 mi NNW 12.7 mph 17.3 mph N/A   Scattered Clouds
3:55 PM 50.0 °F - 35.6 °F 58% 30.45 in 10.0 mi NW 10.4 mph - N/A   Scattered Clouds
4:15 PM 48.2 °F - 35.6 °F 62% 30.45 in 10.0 mi NNW 13.8 mph - N/A   Scattered Clouds
4:35 PM 48.2 °F - 37.4 °F 66% 30.45 in 10.0 mi NNW 12.7 mph 16.1 mph N/A   Scattered Clouds
4:55 PM 48.2 °F - 37.4 °F 66% 30.45 in 10.0 mi NNW 10.4 mph 16.1 mph N/A   Scattered Clouds
5:15 PM 48.2 °F - 37.4 °F 66% 30.45 in 10.0 mi NW 13.8 mph 17.3 mph N/A   Mostly Cloudy
5:35 PM 46.4 °F 40.7 °F 37.4 °F 71% 30.44 in 10.0 mi NW 12.7 mph 18.4 mph N/A   Overcast
5:55 PM 46.4 °F 41.5 °F 35.6 °F 66% 30.44 in 10.0 mi NNW 10.4 mph - N/A   Scattered Clouds
6:15 PM 46.4 °F 41.5 °F 33.8 °F 62% 30.43 in 10.0 mi North 10.4 mph 16.1 mph N/A   Clear
6:35 PM 44.6 °F 39.2 °F 35.6 °F 71% 30.44 in 10.0 mi North 10.4 mph - N/A   Scattered Clouds
6:55 PM 44.6 °F 38.8 °F 33.8 °F 66% 30.43 in 10.0 mi North 11.5 mph - N/A   Mostly Cloudy
7:15 PM 44.6 °F 40.2 °F 33.8 °F 66% 30.44 in 10.0 mi North 8.1 mph - N/A   Mostly Cloudy
7:35 PM 44.6 °F 40.7 °F 33.8 °F 66% 30.44 in 10.0 mi North 6.9 mph - N/A   Mostly Cloudy
7:55 PM 44.6 °F 43.1 °F 33.8 °F 66% - 10.0 mi North 3.5 mph - N/A   Overcast
8:35 PM 42.8 °F 40.1 °F 33.8 °F 70% 30.44 in 10.0 mi NE 4.6 mph - N/A   Mostly Cloudy
8:55 PM 42.8 °F 41.1 °F 35.6 °F 76% 30.45 in 10.0 mi ENE 3.5 mph - N/A   Mostly Cloudy
9:15 PM 42.8 °F 41.1 °F 35.6 °F 76% 30.45 in 10.0 mi NE 3.5 mph - N/A   Mostly Cloudy
9:35 PM 42.8 °F 41.1 °F 35.6 °F 76% 30.45 in 10.0 mi East 3.5 mph - N/A   Scattered Clouds
9:55 PM 42.8 °F 41.1 °F 35.6 °F 76% 30.45 in 10.0 mi ESE 3.5 mph - N/A   Mostly Cloudy
10:15 PM 42.8 °F 40.1 °F 35.6 °F 76% 30.45 in 10.0 mi East 4.6 mph - N/A   Mostly Cloudy
10:35 PM 42.8 °F 41.1 °F 35.6 °F 76% 30.45 in 10.0 mi East 3.5 mph - N/A   Mostly Cloudy
10:55 PM 42.8 °F 41.1 °F 35.6 °F 76% 30.45 in 10.0 mi East 3.5 mph - N/A   Overcast
11:15 PM 42.8 °F 41.1 °F 35.6 °F 76% 30.44 in 7.0 mi East 3.5 mph - N/A   Mostly Cloudy
11:35 PM 41.0 °F 37.1 °F 35.6 °F 81% 30.43 in 10.0 mi East 5.8 mph - N/A   Scattered Clouds
11:55 PM 41.0 °F 38.0 °F 35.6 °F 81% 30.43 in 7.0 mi ESE 4.6 mph - N/A   Scattered Clouds